Location: Asfeld
(49.4698°N, 4.1174°E)
Time: 14:43:35
(UTC+00:00)

Daily predictions for brighter satellites

Satellite Brightness Start Highest point End
(mag) Time Altitude Azimuth Time Altitude Azimuth Time Altitude Azimuth
FALCON 9 R/B 4.0 20:03:42 10° SW 20:07:31 21° SSE 20:15:13 10° SE
NOSS 2-1 (C) 3.9 20:10:42 10° NW 20:14:17 52° NE 20:19:06 10° ESE
Spot 2 Rocket 4.2 20:11:31 10° SE 20:16:11 40° ENE 20:20:55 10° N
Cosmos 2292 Rocket 4.4 20:11:30 10° SSW 20:17:16 67° W 20:21:40 10° N
Cosmos 1743 Rocket 4.4 20:13:54 10° N 20:18:01 36° ENE 20:22:07 10° SE
Lacrosse 4 Rocket 2.6 20:14:39 10° NNW 20:18:18 30° NE 20:21:59 10° ESE
Lacrosse 5 rocket 3.4 20:14:49 10° WNW 20:18:35 29° N 20:22:18 10° ENE
CZ-4 R/B 4.1 20:21:18 10° WSW 20:23:15 13° W 20:25:15 10° WNW
USA 306 4.1 20:21:07 10° W 20:24:17 26° SW 20:27:33 10° SSE
Cosmos 1408 Rocket 3.6 20:20:47 10° N 20:25:15 71° E 20:29:41 10° SSE
Meteor 1-27 Rocket 4.1 20:21:47 10° SSE 20:26:58 44° E 20:32:14 10° NNE
Cosmos 1733 3.7 20:23:51 10° N 20:27:10 38° ENE 20:30:27 10° SE
CZ-4C R/B 3.3 20:24:23 10° NNE 20:28:18 85° ESE 20:32:20 10° SSW
Cosmos 1340 Rocket 3.6 20:26:25 10° SSE 20:30:02 34° E 20:33:38 10° NNE
IRS-1A Rocket 4.3 20:25:44 10° SSE 20:31:19 85° ENE 20:36:52 10° NNW
SPOT 5 2.8 20:31:20 10° S 20:35:47 73° WSW 20:40:08 10° NNW
Cosmos 1151 Rocket 3.9 20:33:01 10° SSE 20:36:51 31° E 20:40:42 10° NNE
Ariane Rocket 3.2 20:34:22 10° SSE 20:39:19 60° ENE 20:44:22 10° N
Cosmos 1726 2.9 20:41:08 10° NNW 20:44:05 39° W 20:46:59 10° SSW
USA 234 4.2 20:39:52 10° ENE 20:46:12 53° NNW 20:52:30 10° W
Cosmos 1833 Rocket 4.3 20:43:39 11° SE 20:46:36 15° E 20:49:44 10° ENE
SPOT 3 Rocket 3.7 20:42:08 10° SSE 20:47:13 64° ENE 20:52:18 10° N
Cosmos 1818 4.2 20:44:27 10° S 20:49:17 33° ESE 20:54:10 10° NE
IRS-1C Rocket 4.5 20:44:40 10° S 20:49:53 65° WSW 20:55:08 10° NNW
Cosmos 2279 Rocket 4.4 20:44:53 10° NNW 20:51:01 65° W 20:57:07 10° S
Cosmos 2369 Rocket 4.4 20:48:11 10° WNW 20:52:01 19° W 20:55:50 10° SW
Cosmos 1805 3.8 20:48:31 10° N 20:52:03 40° ENE 20:54:54 14° SE
Cosmos 1656 4.0 20:47:05 10° NNW 20:52:27 54° NE 20:57:19 13° SE
Nadezhda 4 Rocket 4.1 20:47:22 10° S 20:53:27 61° E 20:59:37 10° NNE
Okean-O 4.2 20:50:02 10° SSW 20:54:00 32° W 20:57:59 10° NNW
Cosmos 1603 4.0 20:48:29 10° SSW 20:54:09 76° WNW 20:59:55 10° NNE
USA 245 2.3 20:52:10 13° S 20:54:09 65° WSW 20:56:44 10° NNW
ERS-1 Rocket 3.1 20:49:39 10° S 20:54:41 78° WSW 20:59:45 10° NNW
Okean 1 3.3 20:51:22 10° S 20:55:13 83° W 20:59:09 10° N
Cosmos 220 Rocket 4.5 20:53:14 10° S 20:57:17 41° ESE 21:01:21 10° NE
Cosmos 614 Rocket 4.2 20:54:48 10° S 20:59:49 52° ESE 21:04:53 10° NNE
Cosmos 1500 Rocket 3.8 20:57:05 10° NNW 21:01:22 67° W 21:05:37 10° S
Cosmos 44 Rocket 4.4 20:56:59 10° NNW 21:01:37 37° NE 21:06:05 10° ESE
Cosmos 1975 3.4 20:59:32 10° N 21:03:19 42° ENE 21:06:07 16° SE
SL-8 R/B 3.6 21:05:51 10° W 21:10:37 80° S 21:15:22 10° E
USA 59 Rocket 0.3 21:07:04 10° NW 21:10:56 63° SW 21:15:05 16° SSE
Cosmos 1805 Rocket 4.0 21:08:23 10° NNW 21:12:45 62° W 21:16:58 11° S
Meteor 1-19 Rocket 4.3 21:07:34 10° SSW 21:13:25 84° W 21:19:07 10° N
NOSS 2-1 (E) 3.9 21:09:53 10° NW 21:13:46 60° SW 21:17:49 16° SSE
Sich 1 3.5 21:09:27 10° NNW 21:13:46 60° W 21:17:57 11° S
Cosmos 1536 4.4 21:13:03 10° NNW 21:16:30 30° W 21:19:58 10° SSW
Cosmos 1633 Rocket 3.6 21:12:34 10° N 21:16:50 44° ENE 21:19:46 18° SE
Cosmos 1666 Rocket 3.7 21:17:33 10° N 21:21:50 59° ENE 21:24:43 20° SSE
GEOS 3 Rocket 4.3 21:19:01 10° ENE 21:23:34 31° ESE 21:27:03 15° S
Spot 1 4.0 21:20:35 10° NNE 21:24:41 64° ESE 21:28:15 14° S
NOSS 2-1 (D) 4.3 21:23:00 10° NW 21:26:47 44° SW 21:30:22 17° SSE
Terra 2.6 21:22:26 10° S 21:26:57 46° W 21:31:30 10° NNW
Cosmos 2026 Rocket 4.1 21:26:45 14° S 21:32:06 64° E 21:38:14 10° NNE
Cosmos 1992 Rocket 4.1 21:28:12 10° NNW 21:33:26 74° WSW 21:37:11 19° SSE
Cosmos 1697 Rocket 3.1 21:37:38 10° NNW 21:43:12 56° NE 21:47:10 19° SE
NOSS 3-3 (A) 3.7 21:42:24 10° SSW 21:47:50 73° SE 21:54:13 10° NE
Cosmos 1340 4.5 21:46:17 10° NW 21:48:56 21° W 21:51:34 10° SW
USA 281 3.3 21:44:56 19° SSE 21:49:51 74° WSW 21:56:29 10° NNW
MOS 1 Rocket 4.5 21:45:42 12° SSW 21:50:12 44° W 21:55:21 10° NNW
Cosmos 1980 Rocket 3.3 21:47:30 10° NNW 21:52:47 37° NE 21:57:19 13° ESE
Cosmos 1707 4.1 21:52:01 20° ESE 21:52:52 21° E 21:55:40 10° NE
Orbus 7S? 3.9 21:47:51 10° SSW 21:53:06 38° SE 21:56:05 10° ENE
ALOS 2 4.5 21:51:27 12° ESE 21:54:11 21° ENE 21:57:28 10° NNE
Lacrosse 4 Rocket 2.3 21:52:50 10° NW 21:56:38 37° WSW 21:58:43 22° SSW
Lacrosse 5 rocket 2.6 21:53:45 10° NW 21:57:45 39° NNE 22:01:37 10° E
Cosmos 1140 Rocket 4.1 21:55:40 24° SSE 21:58:09 38° ESE 22:02:57 10° NE
NOSS 3-4 (A) 4.0 21:57:00 10° NW 22:03:43 71° NE 22:10:02 16° SE
NOSS 3-4 (C) 4.0 21:57:06 10° NW 22:03:49 71° NE 22:10:09 16° SE
Meteor 2-4 Rocket 4.0 21:58:17 11° SSW 22:03:54 72° WNW 22:09:52 10° N
H-2A R/B 3.3 22:02:00 23° ESE 22:04:08 41° ENE 22:08:11 10° N
Cosmos 1066 Rocket 4.3 22:00:45 21° S 22:04:46 72° E 22:10:38 10° NNE
Cosmos 1553 Rocket 4.0 22:00:20 10° N 22:06:26 74° E 22:10:15 24° SSE
Cosmos 1626 2.2 22:06:08 25° SSW 22:07:48 57° WNW 22:10:59 10° N
Cosmos 1842 3.7 22:07:26 32° SE 22:08:29 41° E 22:11:58 10° NNE
BREEZE-M DEB (TANK) 1.6 22:06:55 10° W 22:08:59 84° S 22:10:18 26° E
BREEZE-M DEB (TANK) 4.1 22:11:17 11° SSW 22:15:22 50° SE 22:30:53 10° ENE
CZ-2C R/B 3.6 22:15:01 10° NNE 22:19:30 74° ESE 22:21:42 29° S
KORONAS-FOTON 4.0 22:18:54 37° SE 22:19:56 51° E 22:23:33 10° NNE
ARIANE 5 R/B 2.5 22:18:32 32° SSE 22:20:32 88° WSW 22:24:51 10° NNW
NOSS 3-3 (C) 3.9 22:15:27 10° SW 22:20:56 79° NW 22:27:33 10° NE
Cosmos 1674 2.4 22:21:29 43° SSE 22:22:29 70° E 22:25:59 10° NNE
Cosmos 2285 Rocket 4.2 22:21:35 25° S 22:25:07 54° ESE 22:31:17 10° NNE
USA 234 4.3 22:22:24 10° ENE 22:28:37 47° N 22:34:50 10° WNW
COSMOS 2406 4.5 22:27:11 21° SE 22:28:52 25° ESE 22:33:26 10° NE
Cosmos 1766 3.8 22:25:32 10° NNW 22:29:09 47° W 22:30:39 29° SSW
Cosmos 1833 Rocket 2.6 22:25:16 17° SSW 22:29:39 87° ESE 22:35:19 10° NNE
Cosmos 1763 Rocket 4.2 22:25:15 10° NNW 22:30:25 49° ENE 22:33:32 22° SE
SL-16 R/B 4.2 22:26:31 10° NNW 22:31:00 23° NE 22:35:28 10° E
Cosmos 1328 Rocket 4.5 22:27:52 16° SW 22:31:02 43° WNW 22:35:10 10° N
Cosmos 1818 4.3 22:27:19 10° WSW 22:32:40 54° NW 22:38:04 10° NE
H-2A R/B 4.0 22:33:52 10° NE 22:36:40 16° E 22:37:41 15° ESE
Cosmos 407 Rocket 3.7 22:34:46 31° S 22:37:06 54° ESE 22:42:12 10° NNE
Cosmos 724 4.2 22:34:15 20° SSW 22:38:20 68° ESE 22:44:07 10° NE
Cosmos 1515 Rocket 3.6 22:38:30 29° SSW 22:40:37 72° W 22:44:57 10° N
Cosmos 2082 Rocket 3.0 22:38:48 28° SE 22:40:48 35° ESE 22:45:57 10° NE
Cosmos 2266 Rocket 4.1 22:38:38 28° SSE 22:41:56 63° E 22:48:10 10° NNE
Cosmos 1470 2.6 22:38:58 10° NNW 22:42:40 70° W 22:43:42 43° SSW
BREEZE-M DEB (TANK) 3.2 22:42:14 42° S 22:42:51 48° SSE 22:49:01 10° ENE
Cosmos 44 Rocket 3.8 22:38:31 10° NW 22:43:13 46° WSW 22:44:56 32° S
Cosmos 1733 Rocket 4.4 22:42:23 10° N 22:46:11 29° ENE 22:48:08 21° ESE
Meteor 1-13 Rocket 4.4 22:46:34 30° S 22:49:36 68° E 22:55:25 10° NNE
Cosmos 1869 Rocket 3.5 22:47:52 10° N 22:52:16 81° E 22:53:51 39° SSE
SL-8 R/B 3.9 22:48:16 10° W 22:52:50 47° SSW 22:54:05 37° SSE
Cosmos 2228 Rocket 4.0 22:58:02 29° SE 22:59:23 36° E 23:03:31 10° NNE
Meteor 2-10 Rocket 4.0 22:54:39 10° N 23:00:26 60° ENE 23:03:24 28° SE
Cosmos 1655 Rocket 4.2 22:57:29 29° SSE 23:00:43 62° E 23:07:02 10° NNE
Cosmos 2251 Rocket 3.4 22:59:14 31° SSW 23:01:46 78° ESE 23:07:04 10° NNE
GEOS 3 Rocket 4.0 22:56:43 10° NE 23:01:52 63° NW 23:06:54 10° WSW
Cosmos 1908 3.4 23:02:21 10° NNW 23:05:50 54° W 23:06:34 44° SW
Meteor 1-22 Rocket 4.1 23:01:25 10° NNW 23:06:48 87° E 23:09:19 33° SSE
Cosmos 1346 Rocket 3.9 23:09:12 10° N 23:12:48 35° ENE 23:14:08 27° ESE
Cosmos 1400 Rocket 3.0 23:15:48 45° SE 23:16:41 56° E 23:20:35 10° NNE
Cosmos 2278 4.4 23:11:18 10° NNW 23:16:53 50° NE 23:21:02 17° SE
GP-B 3.3 23:12:48 10° N 23:17:11 58° E 23:18:36 38° SSE
Meteor 1-15 Rocket 4.2 23:14:03 10° NNW 23:19:41 76° W 23:22:13 34° S
Cosmos 2322 Rocket 3.7 23:21:42 10° NNW 23:26:49 33° NE 23:31:54 10° ESE
Cosmos 1697 Rocket 3.9 23:22:08 10° NW 23:26:49 28° WSW 23:28:53 22° SW
Cosmos 1862 Rocket 4.0 23:26:10 37° SE 23:27:23 48° E 23:31:35 10° NNE
Cosmos 1707 4.0 23:26:18 23° WSW 23:27:42 30° WNW 23:30:58 10° N
ALOS 2 3.0 23:28:50 38° SSW 23:30:11 52° W 23:34:30 10° NNW
Cosmos 1356 Rocket 3.9 23:29:58 38° SE 23:30:56 46° E 23:34:57 10° NNE
USA 267 4.0 23:28:07 10° ENE 23:33:56 33° SE 23:35:51 28° SSE
In-Cosmos 22 4.5 23:31:11 28° SSW 23:34:19 65° WNW 23:39:59 10° N
PSLV R/B 3.6 23:30:58 10° NNE 23:35:28 74° ESE 23:36:50 43° S
Cosmos 1300 2.4 23:32:05 10° N 23:35:40 85° W 23:36:14 61° S
Cosmos 1441 Rocket 4.0 23:32:31 10° NNW 23:35:46 33° W 23:36:17 31° WSW
Lacrosse 5 rocket 1.2 23:32:11 10° WNW 23:36:19 63° SW 23:37:07 50° SSE
Cosmos 1980 Rocket 2.7 23:31:29 10° NW 23:36:56 46° WSW 23:39:03 32° SSW
H-2A R/B 4.1 23:37:59 21° WSW 23:39:14 24° W 23:42:42 10° NW
Cosmos 2333 Rocket 3.8 23:34:20 10° NNW 23:39:24 31° NE 23:44:28 10° ESE
Meteor 1-4 Rocket 4.1 23:41:04 18° E 23:41:04 18° E 23:43:08 10° NE
Cosmos 1953 3.4 23:40:22 10° N 23:43:58 35° ENE 23:45:27 25° ESE
SL-14 R/B 3.2 23:48:27 49° SSW 23:49:21 74° W 23:53:11 10° N
Cosmos 1707 Rocket 3.5 23:49:21 42° SSW 23:50:51 82° W 23:55:20 10° N
Cosmos 841 Rocket 3.6 23:47:56 10° NNW 23:53:12 76° ENE 23:55:58 29° SSE
RESURS DK-1 4.3 23:50:17 10° N 23:53:45 26° NE 23:57:11 10° ESE
